Wetterdaten: Woche 24.12.18 - 30.12.18 (KW52)
Datum Zeit Temperatur Luftfeuchte Luftdruck Niederschlag Windrichtung Sonnenschein Solar Wind
24.12.2018 00:00 9,9 C 96 % 1015,3 hPa 0,2 l/m W-SW 0,00 h 0 W/m 32,2 km/h (5 Bft)
24.12.2018 01:00 10,0 C 95 % 1014,5 hPa 0,0 l/m W-SW 0,00 h 0 W/m 35,0 km/h (5 Bft)
24.12.2018 02:00 10,0 C 95 % 1014,1 hPa 0,0 l/m W-SW 0,00 h 0 W/m 40,6 km/h (6 Bft)
24.12.2018 03:00 10,2 C 94 % 1013,5 hPa 0,0 l/m W-SW 0,00 h 0 W/m 34,1 km/h (5 Bft)
24.12.2018 04:00 10,1 C 95 % 1013,2 hPa 0,8 l/m W 0,00 h 0 W/m 29,2 km/h (5 Bft)
24.12.2018 05:00 7,5 C 94 % 1014,9 hPa 6,6 l/m NW 0,00 h 0 W/m 24,8 km/h (4 Bft)
24.12.2018 06:00 5,5 C 95 % 1017,5 hPa 1,8 l/m N 0,00 h 0 W/m 25,1 km/h (4 Bft)
24.12.2018 07:00 4,4 C 95 % 1019,8 hPa 0,4 l/m N-NW 0,00 h 0 W/m 19,6 km/h (3 Bft)
24.12.2018 08:00 4,0 C 96 % 1021,9 hPa 0,0 l/m N-NW 0,00 h 6 W/m 10,8 km/h (2 Bft)
24.12.2018 09:00 3,9 C 96 % 1023,7 hPa 0,0 l/m N 0,00 h 22 W/m 7,9 km/h (2 Bft)
24.12.2018 10:00 3,8 C 97 % 1025,2 hPa 0,8 l/m N 0,00 h 32 W/m 1,9 km/h (1 Bft)
24.12.2018 11:00 3,7 C 97 % 1026,0 hPa 0,8 l/m N 0,17 h 78 W/m 0,4 km/h (0 Bft)
24.12.2018 12:00 4,2 C 95 % 1026,1 hPa 0,0 l/m N 0,08 h 101 W/m 4,9 km/h (1 Bft)
24.12.2018 13:00 4,6 C 94 % 1026,4 hPa 0,0 l/m N 0,42 h 171 W/m 6,3 km/h (2 Bft)
24.12.2018 14:00 5,0 C 89 % 1027,1 hPa 0,0 l/m NW 0,92 h 218 W/m 10,5 km/h (2 Bft)
24.12.2018 15:00 4,5 C 88 % 1027,9 hPa 0,0 l/m NW 1,00 h 91 W/m 9,0 km/h (2 Bft)
24.12.2018 16:00 3,7 C 89 % 1028,8 hPa 0,0 l/m N-NW 0,00 h 11 W/m 5,2 km/h (1 Bft)
24.12.2018 17:00 2,5 C 90 % 1029,5 hPa 0,0 l/m N 0,00 h 0 W/m 0,3 km/h (0 Bft)
24.12.2018 18:00 1,7 C 92 % 1030,1 hPa 0,0 l/m N 0,00 h 0 W/m 0,0 km/h (0 Bft)
24.12.2018 19:00 1,2 C 92 % 1030,8 hPa 0,0 l/m N 0,00 h 0 W/m 0,0 km/h (0 Bft)
24.12.2018 20:00 0,6 C 93 % 1031,9 hPa 0,0 l/m N 0,00 h 0 W/m 0,0 km/h (0 Bft)
24.12.2018 21:00 0,6 C 94 % 1032,2 hPa 0,0 l/m N 0,00 h 0 W/m 0,0 km/h (0 Bft)
24.12.2018 22:00 0,5 C 95 % 1032,9 hPa 0,0 l/m N-NW 0,00 h 0 W/m 0,0 km/h (0 Bft)
24.12.2018 23:00 0,9 C 96 % 1032,8 hPa 0,0 l/m N-NW 0,00 h 0 W/m 1,6 km/h (1 Bft)
25.12.2018 00:00 0,3 C 96 % 1032,7 hPa 0,0 l/m NW 0,00 h 0 W/m 1,5 km/h (1 Bft)
25.12.2018 01:00 -0,5 C 96 % 1032,9 hPa 0,0 l/m N 0,00 h 0 W/m 0,0 km/h (0 Bft)
25.12.2018 02:00 -1,2 C 96 % 1033,6 hPa 0,0 l/m N 0,00 h 0 W/m 0,0 km/h (0 Bft)
25.12.2018 03:00 -1,7 C 96 % 1033,5 hPa 0,0 l/m N 0,00 h 0 W/m 0,0 km/h (0 Bft)
25.12.2018 04:00 -2,2 C 96 % 1033,7 hPa 0,0 l/m NW 0,00 h 0 W/m 1,1 km/h (0 Bft)
25.12.2018 05:00 -2,8 C 96 % 1033,8 hPa 0,0 l/m N 0,00 h 0 W/m 0,0 km/h (0 Bft)
25.12.2018 06:00 -3,5 C 96 % 1034,2 hPa 0,0 l/m N 0,00 h 0 W/m 0,0 km/h (0 Bft)
25.12.2018 07:00 -4,0 C 96 % 1034,4 hPa 0,0 l/m N 0,00 h 0 W/m 0,0 km/h (0 Bft)
25.12.2018 08:00 -4,3 C 96 % 1034,5 hPa 0,0 l/m N 0,00 h 22 W/m 0,0 km/h (0 Bft)
25.12.2018 09:00 -3,7 C 97 % 1034,6 hPa 0,0 l/m N 0,67 h 108 W/m 0,0 km/h (0 Bft)
25.12.2018 10:00 -1,7 C 97 % 1034,9 hPa 0,0 l/m N 1,00 h 225 W/m 0,0 km/h (0 Bft)
25.12.2018 11:00 -0,5 C 97 % 1035,0 hPa 0,2 l/m N-NW 1,00 h 233 W/m 2,8 km/h (1 Bft)
25.12.2018 12:00 0,0 C 97 % 1034,9 hPa 0,0 l/m N 0,17 h 109 W/m 4,4 km/h (1 Bft)
25.12.2018 13:00 -0,0 C 97 % 1034,2 hPa 0,0 l/m N 0,00 h 117 W/m 0,0 km/h (0 Bft)
25.12.2018 14:00 0,4 C 97 % 1034,6 hPa 0,0 l/m N 0,08 h 84 W/m 0,5 km/h (0 Bft)
25.12.2018 15:00 0,6 C 97 % 1035,1 hPa 0,0 l/m N 0,00 h 25 W/m 0,9 km/h (0 Bft)
25.12.2018 16:00 0,7 C 97 % 1035,4 hPa 0,0 l/m N 0,00 h 9 W/m 0,9 km/h (0 Bft)
25.12.2018 17:00 0,4 C 97 % 1035,6 hPa 0,0 l/m N 0,00 h 0 W/m 0,0 km/h (0 Bft)
25.12.2018 18:00 -0,5 C 96 % 1035,3 hPa 0,0 l/m N 0,00 h 0 W/m 0,0 km/h (0 Bft)
25.12.2018 19:00 -1,3 C 96 % 1035,3 hPa 0,0 l/m N 0,00 h 0 W/m 0,0 km/h (0 Bft)
25.12.2018 20:00 -2,0 C 96 % 1035,1 hPa 0,0 l/m N 0,00 h 0 W/m 0,0 km/h (0 Bft)
25.12.2018 21:00 -2,9 C 96 % 1034,9 hPa 0,0 l/m N 0,00 h 0 W/m 0,0 km/h (0 Bft)
25.12.2018 22:00 -2,7 C 97 % 1034,5 hPa 0,0 l/m N 0,00 h 0 W/m 0,0 km/h (0 Bft)
25.12.2018 23:00 -1,6 C 97 % 1034,0 hPa 0,0 l/m N 0,00 h 0 W/m 0,3 km/h (0 Bft)
26.12.2018 00:00 -1,1 C 97 % 1033,9 hPa 0,0 l/m N 0,00 h 0 W/m 1,1 km/h (0 Bft)
26.12.2018 01:00 -1,2 C 97 % 1033,9 hPa 0,0 l/m N 0,00 h 0 W/m 2,1 km/h (1 Bft)
26.12.2018 02:00 -1,3 C 97 % 1033,8 hPa 0,0 l/m N 0,00 h 0 W/m 3,5 km/h (1 Bft)
26.12.2018 03:00 -1,6 C 97 % 1033,7 hPa 0,0 l/m W-SW 0,00 h 0 W/m 8,3 km/h (2 Bft)
26.12.2018 04:00 -1,8 C 98 % 1032,9 hPa 0,0 l/m W-SW 0,00 h 0 W/m 10,8 km/h (2 Bft)
26.12.2018 05:00 -1,8 C 98 % 1032,9 hPa 0,0 l/m SW 0,00 h 0 W/m 7,9 km/h (2 Bft)
26.12.2018 06:00 -2,1 C 98 % 1033,1 hPa 0,0 l/m SW 0,00 h 0 W/m 5,1 km/h (1 Bft)
26.12.2018 07:00 -2,8 C 98 % 1033,2 hPa 0,0 l/m SW 0,00 h 0 W/m 5,6 km/h (1 Bft)
26.12.2018 08:00 -3,1 C 97 % 1033,4 hPa 0,0 l/m N 0,00 h 14 W/m 0,5 km/h (0 Bft)
26.12.2018 09:00 -3,2 C 98 % 1033,5 hPa 0,0 l/m SW 0,00 h 43 W/m 0,8 km/h (0 Bft)
26.12.2018 10:00 -2,9 C 98 % 1033,5 hPa 0,0 l/m SW 0,00 h 87 W/m 6,3 km/h (2 Bft)
26.12.2018 11:00 -2,4 C 98 % 1033,2 hPa 0,0 l/m SW 0,00 h 117 W/m 7,9 km/h (2 Bft)
26.12.2018 12:00 -1,9 C 98 % 1032,9 hPa 0,0 l/m SW 0,08 h 154 W/m 6,4 km/h (2 Bft)
26.12.2018 13:00 -1,6 C 97 % 1032,6 hPa 0,0 l/m SW 0,08 h 139 W/m 6,3 km/h (2 Bft)
26.12.2018 14:00 -1,4 C 96 % 1032,4 hPa 0,0 l/m SW 0,17 h 112 W/m 5,4 km/h (1 Bft)
26.12.2018 15:00 -1,8 C 96 % 1032,3 hPa 0,0 l/m N 0,00 h 43 W/m 2,0 km/h (1 Bft)
26.12.2018 16:00 -2,3 C 96 % 1032,3 hPa 0,0 l/m N 0,00 h 9 W/m 0,0 km/h (0 Bft)
26.12.2018 17:00 -2,7 C 96 % 1032,2 hPa 0,0 l/m N 0,00 h 0 W/m 0,0 km/h (0 Bft)
26.12.2018 18:00 -3,1 C 96 % 1032,5 hPa 0,0 l/m SW 0,00 h 0 W/m 2,0 km/h (1 Bft)
26.12.2018 19:00 -3,5 C 96 % 1032,4 hPa 0,0 l/m N 0,00 h 0 W/m 0,0 km/h (0 Bft)
26.12.2018 20:00 -3,7 C 97 % 1032,4 hPa 0,0 l/m N 0,00 h 0 W/m 0,0 km/h (0 Bft)
26.12.2018 21:00 -4,1 C 97 % 1032,2 hPa 0,0 l/m N 0,00 h 0 W/m 0,0 km/h (0 Bft)
26.12.2018 22:00 -4,3 C 97 % 1031,8 hPa 0,0 l/m N 0,00 h 0 W/m 0,0 km/h (0 Bft)
26.12.2018 23:00 -4,2 C 97 % 1031,6 hPa 0,0 l/m N 0,00 h 0 W/m 0,0 km/h (0 Bft)
27.12.2018 00:00 -4,1 C 97 % 1031,3 hPa 0,0 l/m N 0,00 h 0 W/m 0,0 km/h (0 Bft)
27.12.2018 01:00 -4,0 C 98 % 1031,0 hPa 0,0 l/m N 0,00 h 0 W/m 0,0 km/h (0 Bft)
27.12.2018 02:00 -4,0 C 98 % 1030,8 hPa 0,0 l/m N 0,00 h 0 W/m 0,0 km/h (0 Bft)
27.12.2018 03:00 -4,1 C 98 % 1030,4 hPa 0,0 l/m N 0,00 h 0 W/m 0,0 km/h (0 Bft)
27.12.2018 04:00 -4,2 C 98 % 1029,7 hPa 0,0 l/m SW 0,00 h 0 W/m 0,4 km/h (0 Bft)
27.12.2018 05:00 -4,5 C 98 % 1029,4 hPa 0,0 l/m N 0,00 h 0 W/m 0,1 km/h (0 Bft)
27.12.2018 06:00 -4,7 C 98 % 1029,4 hPa 0,0 l/m N 0,00 h 0 W/m 0,0 km/h (0 Bft)
27.12.2018 07:00 -4,9 C 97 % 1029,7 hPa 0,0 l/m N 0,00 h 0 W/m 0,8 km/h (0 Bft)
27.12.2018 08:00 -5,6 C 97 % 1029,7 hPa 0,0 l/m N 0,08 h 15 W/m 0,4 km/h (0 Bft)
27.12.2018 09:00 -5,5 C 98 % 1029,7 hPa 0,0 l/m N 0,08 h 54 W/m 0,3 km/h (0 Bft)
27.12.2018 10:00 -4,7 C 98 % 1029,8 hPa 0,0 l/m N 0,33 h 134 W/m 0,4 km/h (0 Bft)
27.12.2018 11:00 -3,2 C 98 % 1029,3 hPa 0,0 l/m N 0,42 h 165 W/m 0,4 km/h (0 Bft)
27.12.2018 12:00 -2,6 C 98 % 1028,2 hPa 0,0 l/m SW 0,00 h 129 W/m 1,3 km/h (1 Bft)
27.12.2018 13:00 -1,7 C 98 % 1027,5 hPa 0,0 l/m SW 0,25 h 168 W/m 4,3 km/h (1 Bft)
27.12.2018 14:00 -1,3 C 98 % 1027,1 hPa 0,0 l/m SW 0,00 h 95 W/m 3,2 km/h (1 Bft)
27.12.2018 15:00 -1,3 C 98 % 1026,9 hPa 0,0 l/m SW 0,00 h 40 W/m 5,9 km/h (2 Bft)
27.12.2018 16:00 -1,4 C 98 % 1026,8 hPa 0,0 l/m SW 0,00 h 10 W/m 6,7 km/h (2 Bft)
27.12.2018 17:00 -1,6 C 98 % 1026,9 hPa 0,0 l/m SW 0,00 h 0 W/m 5,0 km/h (1 Bft)
27.12.2018 18:00 -1,7 C 98 % 1027,2 hPa 0,0 l/m SW 0,00 h 0 W/m 3,8 km/h (1 Bft)
27.12.2018 19:00 -1,8 C 98 % 1027,1 hPa 0,0 l/m SW 0,00 h 0 W/m 4,4 km/h (1 Bft)
27.12.2018 20:00 -1,9 C 98 % 1027,3 hPa 0,0 l/m SW 0,00 h 0 W/m 2,0 km/h (1 Bft)
27.12.2018 21:00 -2,1 C 98 % 1027,4 hPa 0,0 l/m SW 0,00 h 0 W/m 2,7 km/h (1 Bft)
27.12.2018 22:00 -2,3 C 98 % 1027,3 hPa 0,0 l/m SW 0,00 h 0 W/m 5,1 km/h (1 Bft)
27.12.2018 23:00 -2,4 C 98 % 1027,2 hPa 0,0 l/m SW 0,00 h 0 W/m 9,1 km/h (2 Bft)
28.12.2018 00:00 -2,2 C 98 % 1027,0 hPa 0,0 l/m SW 0,00 h 0 W/m 8,7 km/h (2 Bft)
Min-Datum _ 27.12.18 24.12.18 24.12.18 - - - - 24.12.18
_ Min-Zeit 08:40 14:30 04:35 - - - - 08:40
Minimum _ -5,8 C 87 % 1013,0 hPa - - - - 0,0 km/h (0 Bft)
Max-Datum _ 24.12.18 26.12.18 25.12.18 24.12.18 - 24.12.18 25.12.18 24.12.18
_ Max-Zeit 03:05 07:55 17:20 05:10 - 11:45 11:55 02:00
Maximum _ 10,2 C 100 % 1035,7 hPa 6,6 l/m - 0,08 h 380 W/m 57,9 km/h
W-SW (7 Bft)
Durchschnitt _ -0,6 C 96 % 1030,0 hPa #11,6 l/m SW #7:00 h 89 W/m 4,7 km/h (1 Bft)